When you browse on this site, cookies collect data to enhance your experience and personalize the content and advertising you see.
Visit our Privacy Policy to learn more. By continuing to use the site, you agree to this use of cookies and data.
  • In Spain
  • List of Countries
  • For 7 days
  • Water Temperature
  • Satellite Maps
  • Weather Map
  • Weather Widgets
  • user-avatar
    Login

    Hourly Weather Dakar

    Today, 19 February, Tuesday

    Time Temperature Precipitation Wind Pressure Humidity
    00:00 +23°C° 0 mm 6 mps 759 mmHg 53%
    01:00 +23°C° 0 mm 6 mps 759 mmHg 54%
    02:00 +23°C° 0 mm 6 mps 759 mmHg 56%
    03:00 +22°C° 0 mm 6 mps 759 mmHg 58%
    04:00 +22°C° 0 mm 6 mps 759 mmHg 61%
    05:00 +22°C° 0 mm 7 mps 759 mmHg 63%
    06:00 +22°C° 0 mm 7 mps 759 mmHg 65%
    07:00 +22°C° 0 mm 7 mps 759 mmHg 66%
    08:00 +22°C° 0 mm 7 mps 759 mmHg 68%
    09:00 +23°C° 0 mm 7 mps 760 mmHg 62%
    10:00 +24°C° 0 mm 7 mps 760 mmHg 57%
    11:00 +26°C° 0 mm 7 mps 760 mmHg 51%
    12:00 +27°C° 0 mm 7 mps 759 mmHg 46%
    13:00 +29°C° 0 mm 7 mps 759 mmHg 41%
    14:00 +30°C° 0 mm 7 mps 758 mmHg 36%
    15:00 +29°C° 0 mm 6 mps 758 mmHg 38%
    16:00 +28°C° 0 mm 6 mps 758 mmHg 39%
    17:00 +27°C° 0 mm 5 mps 757 mmHg 40%
    18:00 +26°C° 0 mm 5 mps 758 mmHg 42%
    19:00 +25°C° 0 mm 5 mps 758 mmHg 43%
    20:00 +25°C° 0 mm 5 mps 758 mmHg 44%
    21:00 +23°C° 0 mm 5 mps 759 mmHg 46%
    22:00 +23°C° 0 mm 5 mps 759 mmHg 48%
    23:00 +23°C° 0 mm 5 mps 759 mmHg 50%

    Tomorrow, 20 February, Wednesday

    Time Temperature Precipitation Wind Pressure Humidity
    00:00 +22°C° 0 mm 6 mps 759 mmHg 53%
    01:00 +22°C° 0 mm 6 mps 759 mmHg 56%
    02:00 +22°C° 0 mm 6 mps 758 mmHg 59%
    03:00 +22°C° 0 mm 6 mps 758 mmHg 63%
    04:00 +21°C° 0 mm 6 mps 758 mmHg 67%
    05:00 +21°C° 0 mm 6 mps 758 mmHg 71%
    06:00 +21°C° 0 mm 6 mps 758 mmHg 70%
    07:00 +22°C° 0 mm 6 mps 759 mmHg 69%
    08:00 +22°C° 0 mm 6 mps 759 mmHg 68%
    09:00 +25°C° 0 mm 5 mps 760 mmHg 54%
    10:00 +28°C° 0 mm 5 mps 760 mmHg 41%
    11:00 +30°C° 0 mm 5 mps 760 mmHg 28%
    12:00 +32°C° 0 mm 5 mps 759 mmHg 26%
    13:00 +32°C° 0 mm 4 mps 759 mmHg 24%
    14:00 +33°C° 0 mm 4 mps 758 mmHg 22%
    15:00 +32°C° 0 mm 4 mps 758 mmHg 25%
    16:00 +29°C° 0 mm 4 mps 758 mmHg 27%
    17:00 +28°C° 0 mm 5 mps 758 mmHg 30%
    18:00 +27°C° 0 mm 5 mps 758 mmHg 32%
    19:00 +26°C° 0 mm 5 mps 759 mmHg 34%
    20:00 +26°C° 0 mm 5 mps 759 mmHg 36%
    21:00 +25°C° 0 mm 5 mps 759 mmHg 38%
    22:00 +25°C° 0 mm 5 mps 760 mmHg 40%
    23:00 +24°C° 0 mm 6 mps 760 mmHg 43%

    Day after tomorrow, 21 February, Thursday

    Time Temperature Precipitation Wind Pressure Humidity
    00:00 +24°C° 0 mm 6 mps 759 mmHg 46%
    01:00 +23°C° 0 mm 6 mps 759 mmHg 48%
    02:00 +23°C° 0 mm 6 mps 759 mmHg 51%
    03:00 +23°C° 0 mm 6 mps 759 mmHg 53%
    04:00 +23°C° 0 mm 6 mps 759 mmHg 54%
    05:00 +23°C° 0 mm 6 mps 758 mmHg 56%
    06:00 +23°C° 0 mm 6 mps 759 mmHg 53%
    07:00 +24°C° 0 mm 6 mps 760 mmHg 50%
    08:00 +24°C° 0 mm 6 mps 760 mmHg 47%
    09:00 +27°C° 0 mm 6 mps 760 mmHg 39%
    10:00 +30°C° 0 mm 5 mps 761 mmHg 30%
    11:00 +33°C° 0 mm 5 mps 761 mmHg 22%
    12:00 +33°C° 0 mm 5 mps 760 mmHg 22%
    13:00 +34°C° 0 mm 6 mps 759 mmHg 23%
    14:00 +34°C° 0 mm 6 mps 759 mmHg 23%
    15:00 +33°C° 0 mm 6 mps 759 mmHg 26%
    16:00 +30°C° 0 mm 6 mps 759 mmHg 29%
    17:00 +29°C° 0 mm 6 mps 759 mmHg 32%
    18:00 +28°C° 0 mm 6 mps 759 mmHg 35%
    19:00 +27°C° 0 mm 6 mps 760 mmHg 38%
    20:00 +26°C° 0 mm 7 mps 760 mmHg 42%
    21:00 +26°C° 0 mm 7 mps 761 mmHg 42%
    22:00 +26°C° 0 mm 7 mps 761 mmHg 43%
    23:00 +26°C° 0 mm 7 mps 761 mmHg 44%

    22 February, Friday

    Time Temperature Precipitation Wind Pressure Humidity
    00:00 +24°C° 0 mm 7 mps 761 mmHg 45%
    01:00 +24°C° 0 mm 7 mps 760 mmHg 45%
    02:00 +24°C° 0 mm 7 mps 760 mmHg 46%
    03:00 +24°C° 0 mm 7 mps 759 mmHg 47%
    04:00 +24°C° 0 mm 6 mps 759 mmHg 48%
    05:00 +24°C° 0 mm 6 mps 759 mmHg 49%
    06:00 +24°C° 0 mm 6 mps 760 mmHg 48%
    07:00 +26°C° 0 mm 6 mps 761 mmHg 46%
    08:00 +26°C° 0 mm 6 mps 761 mmHg 45%
    09:00 +28°C° 0 mm 6 mps 761 mmHg 38%
    10:00 +30°C° 0 mm 6 mps 762 mmHg 31%
    11:00 +33°C° 0 mm 6 mps 762 mmHg 24%
    12:00 +34°C° 0 mm 7 mps 761 mmHg 25%
    13:00 +34°C° 0 mm 7 mps 760 mmHg 25%
    14:00 +34°C° 0 mm 7 mps 759 mmHg 25%
    15:00 +33°C° 0 mm 8 mps 759 mmHg 29%
    16:00 +31°C° 0 mm 8 mps 759 mmHg 34%
    17:00 +28°C° 0 mm 8 mps 759 mmHg 38%
    18:00 +27°C° 0 mm 9 mps 759 mmHg 41%
    19:00 +27°C° 0 mm 9 mps 760 mmHg 44%
    20:00 +26°C° 0 mm 9 mps 760 mmHg 47%
    21:00 +24°C° 0 mm 9 mps 760 mmHg 48%
    22:00 +24°C° 0 mm 9 mps 760 mmHg 49%
    23:00 +24°C° 0 mm 9 mps 760 mmHg 50%

    23 February, Saturday

    Time Temperature Precipitation Wind Pressure Humidity
    00:00 +24°C° 0 mm 9 mps 760 mmHg 50%
    01:00 +24°C° 0 mm 9 mps 759 mmHg 50%
    02:00 +24°C° 0 mm 9 mps 759 mmHg 50%
    03:00 +24°C° 0 mm 8 mps 759 mmHg 51%
    04:00 +23°C° 0 mm 8 mps 759 mmHg 51%
    05:00 +23°C° 0 mm 8 mps 759 mmHg 52%
    06:00 +24°C° 0 mm 8 mps 760 mmHg 50%
    07:00 +24°C° 0 mm 8 mps 760 mmHg 48%
    08:00 +26°C° 0 mm 8 mps 760 mmHg 46%
    09:00 +28°C° 0 mm 7 mps 760 mmHg 37%
    10:00 +32°C° 0 mm 7 mps 760 mmHg 28%
    11:00 +34°C° 0 mm 6 mps 760 mmHg 19%
    12:00 +35°C° 0 mm 6 mps 760 mmHg 19%
    13:00 +36°C° 0 mm 6 mps 759 mmHg 19%
    14:00 +38°C° 0 mm 6 mps 758 mmHg 19%
    15:00 +35°C° 0 mm 7 mps 758 mmHg 23%
    16:00 +33°C° 0 mm 7 mps 758 mmHg 28%
    17:00 +31°C° 0 mm 8 mps 757 mmHg 33%
    18:00 +29°C° 0 mm 8 mps 758 mmHg 37%
    19:00 +28°C° 0 mm 8 mps 758 mmHg 40%
    20:00 +26°C° 0 mm 8 mps 759 mmHg 44%
    21:00 +26°C° 0 mm 8 mps 759 mmHg 44%
    22:00 +26°C° 0 mm 8 mps 759 mmHg 44%
    23:00 +26°C° 0 mm 7 mps 759 mmHg 44%

    24 February, Sunday

    Time Temperature Precipitation Wind Pressure Humidity
    00:00 +26°C° 0 mm 7 mps 759 mmHg 44%
    01:00 +26°C° 0 mm 7 mps 758 mmHg 44%
    02:00 +26°C° 0 mm 7 mps 758 mmHg 44%
    03:00 +26°C° 0 mm 7 mps 758 mmHg 42%
    04:00 +24°C° 0 mm 7 mps 758 mmHg 41%
    05:00 +24°C° 0 mm 7 mps 758 mmHg 39%
    06:00 +26°C° 0 mm 6 mps 759 mmHg 32%
    07:00 +27°C° 0 mm 6 mps 759 mmHg 25%
    08:00 +28°C° 0 mm 5 mps 759 mmHg 18%
    09:00 +30°C° 0 mm 5 mps 759 mmHg 16%
    10:00 +33°C° 0 mm 4 mps 759 mmHg 15%
    11:00 +36°C° 0 mm 3 mps 759 mmHg 13%
    12:00 +36°C° 0 mm 3 mps 759 mmHg 14%
    13:00 +37°C° 0 mm 3 mps 758 mmHg 15%
    14:00 +37°C° 0 mm 3 mps 758 mmHg 16%
    15:00 +36°C° 0 mm 4 mps 757 mmHg 19%
    16:00 +35°C° 0 mm 4 mps 757 mmHg 21%
    17:00 +33°C° 0 mm 5 mps 757 mmHg 24%
    18:00 +32°C° 0 mm 5 mps 758 mmHg 28%
    19:00 +29°C° 0 mm 6 mps 758 mmHg 32%
    20:00 +28°C° 0 mm 6 mps 758 mmHg 36%
    21:00 +27°C° 0 mm 6 mps 759 mmHg 38%
    22:00 +27°C° 0 mm 6 mps 759 mmHg 40%
    23:00 +27°C° 0 mm 6 mps 759 mmHg 41%
    Show more